Location: ??????????
(42.1626°N, 44.1160°E)
Time: 14:09:32
(UTC+00:00)

Cosmos 2242 Rocket - Pass Details

Date: 03 March 2021
Orbit: 617 x 652 km, 82.5° (Epoch: 13 April)

Event Time Altitude Azimuth Distance (km) Brightness Sun altitude
Rises 15:51:33 0° 360° (N) 2,955 7.1 -11.1°
Reaches altitude 10° 15:53:58 10° 9° (N) 2,035 6.1 -11.5°
Maximum altitude 15:58:08 36° 76° (ENE) 1,005 4.1 -12.3°
Drops below altitude 10° 16:02:15 10° 144° (SE) 2,000 5.8 -13.1°
Enters shadow 16:04:05 - 151° (SSE) 2,696 6.5 -13.4°
